C9S YSTW-YCFS

Flight info

Callsign C9S
Flight time 0h 30m
Altitude 17000
Route TW W330 CFS
Aircraft C750/M-SBDE3FGHRWXY/S

Departure

Time 2026-04-20 02:13
Airport Tamworth Airport (YSTW)

Arrival

Time 2026-04-20 02:44
Airport Coffs Harbour Airport (YCFS)
Time Latitude Longitude Altitude Speed Heading
2026-04-20 01:59 -31.08571 150.85100 1347 ft 0 kts 312°
2026-04-20 02:08 -31.08565 150.85094 1350 ft 4 kts 324°
2026-04-20 02:08 -31.08520 150.85107 1350 ft 10 kts 36°
2026-04-20 02:09 -31.08462 150.85110 1347 ft 9 kts 315°
2026-04-20 02:09 -31.08420 150.85056 1348 ft 9 kts 313°
2026-04-20 02:09 -31.08374 150.85001 1345 ft 10 kts 314°
2026-04-20 02:09 -31.08333 150.84941 1343 ft 9 kts 302°
2026-04-20 02:10 -31.08290 150.84881 1345 ft 10 kts 313°
2026-04-20 02:10 -31.08241 150.84822 1342 ft 10 kts 314°
2026-04-20 02:10 -31.08163 150.84724 1338 ft 22 kts 311°
2026-04-20 02:10 -31.08033 150.84562 1343 ft 32 kts 312°
2026-04-20 02:11 -31.07886 150.84378 1336 ft 31 kts 313°
2026-04-20 02:11 -31.07735 150.84190 1329 ft 32 kts 313°
2026-04-20 02:11 -31.07622 150.84049 1323 ft 18 kts 313°
2026-04-20 02:11 -31.07533 150.83935 1319 ft 19 kts 315°
2026-04-20 02:12 -31.07422 150.83894 1316 ft 17 kts 30°
2026-04-20 02:12 -31.07349 150.83962 1316 ft 10 kts 27°
2026-04-20 02:12 -31.07329 150.83977 1316 ft 0 kts 108°
2026-04-20 02:12 -31.07334 150.83983 1316 ft 1 kts 129°
2026-04-20 02:13 -31.07358 150.84014 1317 ft 10 kts 133°
2026-04-20 02:13 -31.07558 150.84263 1328 ft 98 kts 133°
2026-04-20 02:13 -31.08181 150.85045 1601 ft 147 kts 136°
2026-04-20 02:13 -31.08881 150.85917 2485 ft 145 kts 136°
2026-04-20 02:14 -31.09553 150.86749 3414 ft 136 kts 135°
2026-04-20 02:14 -31.10280 150.87625 3915 ft 163 kts 136°
2026-04-20 02:14 -31.10774 150.88676 4759 ft 138 kts 91°
2026-04-20 02:14 -31.10256 150.89662 5169 ft 160 kts 45°
2026-04-20 02:15 -31.09407 150.90582 5762 ft 175 kts 48°
2026-04-20 02:15 -31.08488 150.91629 6279 ft 195 kts 48°
2026-04-20 02:15 -31.07457 150.92809 6790 ft 221 kts 47°
2026-04-20 02:15 -31.06306 150.94139 7359 ft 245 kts 47°
2026-04-20 02:16 -31.05044 150.95611 8051 ft 269 kts 47°
2026-04-20 02:16 -31.03667 150.97233 8816 ft 291 kts 47°
2026-04-20 02:16 -31.02239 150.98923 9863 ft 294 kts 47°
2026-04-20 02:16 -31.00631 151.00501 10473 ft 315 kts 37°
2026-04-20 02:17 -30.98721 151.01962 10701 ft 342 kts 36°
2026-04-20 02:17 -30.97080 151.04083 10825 ft 364 kts 63°
2026-04-20 02:17 -30.96184 151.06820 11743 ft 360 kts 75°
2026-04-20 02:17 -30.95491 151.09645 12508 ft 366 kts 76°
2026-04-20 02:18 -30.94648 151.12475 13255 ft 374 kts 70°
2026-04-20 02:18 -30.93554 151.15251 14001 ft 380 kts 66°
2026-04-20 02:18 -30.92431 151.18060 14663 ft 385 kts 68°
2026-04-20 02:18 -30.91422 151.20957 15354 ft 388 kts 71°
2026-04-20 02:19 -30.90425 151.23896 16046 ft 393 kts 70°
2026-04-20 02:19 -30.89366 151.26786 16750 ft 380 kts 68°
2026-04-20 02:19 -30.88288 151.29664 16928 ft 393 kts 69°
2026-04-20 02:19 -30.87225 151.32611 16922 ft 397 kts 69°
2026-04-20 02:20 -30.86166 151.35586 16931 ft 398 kts 69°
2026-04-20 02:20 -30.85086 151.38560 16929 ft 400 kts 69°
2026-04-20 02:20 -30.84008 151.41499 16928 ft 400 kts 69°
2026-04-20 02:20 -30.82922 151.44486 16930 ft 402 kts 69°
2026-04-20 02:21 -30.80751 151.50469 16939 ft 402 kts 69°
2026-04-20 02:21 -30.79660 151.53457 16939 ft 402 kts 69°
2026-04-20 02:21 -30.78568 151.56447 16940 ft 401 kts 69°
2026-04-20 02:22 -30.77479 151.59437 16942 ft 401 kts 69°
2026-04-20 02:22 -30.76387 151.62427 16944 ft 402 kts 69°
2026-04-20 02:22 -30.75294 151.65414 16949 ft 402 kts 69°
2026-04-20 02:22 -30.74199 151.68403 16950 ft 402 kts 69°
2026-04-20 02:23 -30.73107 151.71386 16953 ft 402 kts 69°
2026-04-20 02:23 -30.72014 151.74371 16950 ft 401 kts 69°
2026-04-20 02:23 -30.70919 151.77355 16952 ft 401 kts 69°
2026-04-20 02:23 -30.69822 151.80340 16953 ft 402 kts 69°
2026-04-20 02:24 -30.68726 151.83323 16942 ft 401 kts 69°
2026-04-20 02:24 -30.67626 151.86315 16937 ft 400 kts 69°
2026-04-20 02:24 -30.66528 151.89291 16951 ft 403 kts 69°
2026-04-20 02:24 -30.65427 151.92283 16952 ft 403 kts 69°
2026-04-20 02:25 -30.64328 151.95274 16943 ft 402 kts 69°
2026-04-20 02:25 -30.63224 151.98262 16945 ft 403 kts 69°
2026-04-20 02:25 -30.62119 152.01246 16941 ft 402 kts 69°
2026-04-20 02:25 -30.61016 152.04231 16939 ft 401 kts 69°
2026-04-20 02:26 -30.59914 152.07214 16948 ft 402 kts 69°
2026-04-20 02:26 -30.58808 152.10201 16948 ft 403 kts 69°
2026-04-20 02:26 -30.57701 152.13185 16947 ft 402 kts 69°
2026-04-20 02:26 -30.56595 152.16165 16946 ft 402 kts 69°
2026-04-20 02:27 -30.55488 152.19149 16948 ft 402 kts 69°
2026-04-20 02:27 -30.54380 152.22131 16948 ft 402 kts 69°
2026-04-20 02:27 -30.53271 152.25112 16939 ft 402 kts 69°
2026-04-20 02:27 -30.52162 152.28095 16935 ft 403 kts 69°
2026-04-20 02:28 -30.51064 152.31041 16940 ft 403 kts 69°
2026-04-20 02:28 -30.50312 152.33057 16939 ft 403 kts 69°
2026-04-20 02:28 -30.48969 152.37057 16918 ft 399 kts 77°
2026-04-20 02:28 -30.48008 152.40092 16938 ft 402 kts 66°
2026-04-20 02:29 -30.46652 152.42953 16942 ft 405 kts 61°
2026-04-20 02:29 -30.45206 152.45755 16950 ft 405 kts 62°
2026-04-20 02:29 -30.43876 152.48632 16948 ft 404 kts 65°
2026-04-20 02:29 -30.43037 152.50604 16945 ft 405 kts 66°
2026-04-20 02:30 -30.41766 152.53508 16960 ft 406 kts 64°
2026-04-20 02:30 -30.40413 152.56369 16944 ft 406 kts 63°
2026-04-20 02:30 -30.39059 152.59237 16950 ft 405 kts 64°
2026-04-20 02:30 -30.37749 152.62129 16609 ft 403 kts 64°
2026-04-20 02:31 -30.36457 152.64998 16078 ft 400 kts 64°
2026-04-20 02:31 -30.35154 152.67821 15560 ft 396 kts 64°
2026-04-20 02:31 -30.33853 152.70618 15036 ft 393 kts 64°
2026-04-20 02:31 -30.32574 152.73398 14518 ft 390 kts 64°
2026-04-20 02:32 -30.31328 152.76121 14014 ft 386 kts 64°
2026-04-20 02:32 -30.30053 152.78891 13470 ft 384 kts 64°
2026-04-20 02:32 -30.28798 152.81604 12963 ft 380 kts 64°
2026-04-20 02:32 -30.27568 152.84268 12475 ft 380 kts 64°
2026-04-20 02:33 -30.26335 152.86940 11976 ft 376 kts 64°
2026-04-20 02:33 -30.25110 152.89594 11481 ft 372 kts 64°
2026-04-20 02:33 -30.23908 152.92188 10998 ft 355 kts 64°
2026-04-20 02:33 -30.22774 152.94628 10530 ft 334 kts 64°
2026-04-20 02:34 -30.21707 152.96936 10096 ft 317 kts 65°
2026-04-20 02:34 -30.20684 152.99148 9674 ft 309 kts 65°
2026-04-20 02:34 -30.19679 153.01319 9253 ft 304 kts 65°
2026-04-20 02:34 -30.18687 153.03462 8848 ft 300 kts 65°
2026-04-20 02:35 -30.17701 153.05585 8459 ft 299 kts 64°
2026-04-20 02:35 -30.16726 153.07686 8079 ft 296 kts 64°
2026-04-20 02:35 -30.15750 153.09785 7690 ft 294 kts 64°
2026-04-20 02:35 -30.14799 153.11823 7312 ft 282 kts 65°
2026-04-20 02:36 -30.13891 153.13773 7000 ft 269 kts 65°
2026-04-20 02:36 -30.13023 153.15646 6649 ft 260 kts 66°
2026-04-20 02:36 -30.12182 153.17455 6312 ft 252 kts 67°
2026-04-20 02:36 -30.11363 153.19213 5985 ft 245 kts 65°
2026-04-20 02:37 -30.10817 153.21023 5587 ft 234 kts 91°
2026-04-20 02:37 -30.11057 153.22797 5321 ft 218 kts 116°
2026-04-20 02:37 -30.11885 153.24197 5036 ft 207 kts 141°
2026-04-20 02:37 -30.13078 153.25097 4781 ft 202 kts 155°
2026-04-20 02:38 -30.14301 153.25871 4504 ft 201 kts 154°
2026-04-20 02:38 -30.15553 153.26616 4208 ft 201 kts 161°
2026-04-20 02:38 -30.16910 153.26777 3923 ft 196 kts 186°
2026-04-20 02:38 -30.18173 153.26277 3660 ft 191 kts 208°
2026-04-20 02:39 -30.19191 153.25316 3416 ft 187 kts 217°
2026-04-20 02:39 -30.20163 153.24344 3156 ft 183 kts 217°
2026-04-20 02:39 -30.21101 153.23411 2900 ft 174 kts 217°
2026-04-20 02:39 -30.21993 153.22519 2659 ft 166 kts 216°
2026-04-20 02:40 -30.22845 153.21665 2447 ft 159 kts 217°
2026-04-20 02:40 -30.23673 153.20837 2243 ft 156 kts 216°
2026-04-20 02:40 -30.24439 153.20066 2010 ft 142 kts 217°
2026-04-20 02:40 -30.25208 153.19299 1838 ft 147 kts 217°
2026-04-20 02:41 -30.25919 153.18583 1645 ft 124 kts 217°
2026-04-20 02:41 -30.26554 153.17947 1503 ft 119 kts 217°
2026-04-20 02:41 -30.27155 153.17345 1345 ft 111 kts 217°
2026-04-20 02:41 -30.27735 153.16765 1201 ft 109 kts 216°
2026-04-20 02:42 -30.28284 153.16217 1048 ft 99 kts 218°
2026-04-20 02:42 -30.28771 153.15672 868 ft 96 kts 218°
2026-04-20 02:42 -30.29242 153.15102 740 ft 101 kts 214°
2026-04-20 02:42 -30.29792 153.14598 662 ft 103 kts 211°
2026-04-20 02:43 -30.30393 153.14069 590 ft 114 kts 213°
2026-04-20 02:43 -30.31000 153.13458 486 ft 118 kts 216°
2026-04-20 02:43 -30.31616 153.12859 386 ft 112 kts 215°
2026-04-20 02:43 -30.32218 153.12269 150 ft 115 kts 215°
2026-04-20 02:44 -30.32794 153.11679 27 ft 106 kts 213°
2026-04-20 02:44 -30.33257 153.11234 24 ft 59 kts 220°
2026-04-20 02:44 -30.33418 153.11088 23 ft 15 kts 204°
2026-04-20 02:44 -30.33446 153.11050 20 ft 4 kts 351°
2026-04-20 02:45 -30.33376 153.11112 22 ft 22 kts 43°
2026-04-20 02:45 -30.33263 153.11089 22 ft 17 kts 309°
2026-04-20 02:45 -30.33174 153.11071 23 ft 14 kts 38°
2026-04-20 02:45 -30.33104 153.11139 24 ft 13 kts 41°
2026-04-20 02:46 -30.33035 153.11209 22 ft 16 kts 41°
2026-04-20 02:46 -30.32908 153.11337 22 ft 30 kts 41°
2026-04-20 02:46 -30.32753 153.11491 23 ft 29 kts 40°
2026-04-20 02:46 -30.32601 153.11640 25 ft 28 kts 41°
2026-04-20 02:47 -30.32461 153.11771 23 ft 19 kts 18°
2026-04-20 02:47 -30.32375 153.11757 23 ft 7 kts 12°
2026-04-20 02:47 -30.32325 153.11776 25 ft 17 kts 21°
2026-04-20 02:47 -30.32249 153.11768 24 ft 10 kts 249°
2026-04-20 02:48 -30.32260 153.11727 23 ft 4 kts 331°
2026-04-20 02:48 -30.32234 153.11720 24 ft 4 kts 343°
2026-04-20 02:48 -30.32222 153.11715 23 ft 0 kts 341°